BADR-7 (ARABSAT-6B)

Last updated on Wed Sep 17 2025 00:02:49 GMT+0000 (Coordinated Universal Time)

1 41029U 15065B 25259.58884537 .00000125 00000+0 00000+0 0 9990 2 41029 0.0257 206.9433 0006457 17.6385 9.1606 1.00271568 36024
UTC large
Height (km)
Speed (km/s)
/
Latitude / Longitude
Inclination (degrees)
Orbital Period (minutes)
Azimuth
Elevation
Range (km)
Doppler Factor

Next 0 passes for location: London (51.5072 / 0.1276)

Sorry there are no passes over London.